Retour au catalogue

DELTA 1 DEB

ActifLEO
NORAD 10645·DEBRIS·🇺🇸 United States

Lancé Jul 29, 1976 depuis Vandenberg Space Force Base

Loading…

Prochains Passages (prochaines 24 heures)

TLE

FraisSource: Space-Track

Époque: Sep 13, 2026, 15:03 UTC

1 10645U 76077F   26256.62722493  .00000258  00000-0  34748-2 0  9992
2 10645 102.3862 150.2913 0224268  65.0664  10.1798 11.99214079165294

Suivez DELTA 1 DEB en temps réel avec AllMySat

Download on the App Store